Wind_Speed
33 32 33 33 35 37 39 40 42 43 44 44 45 46 46 46 46 47 47 48 50 52 54 55 56 57 58 60 60 59 59 58 57 57 58 59 60 60 60 61 61 61 61 61 60 61 61 61 61 61 61 61 61 60 59 58 57 56 55 56 56 57 57 57 57 57 57 57 56 55 53 52 54 57 58 59 61 60 59 59 60 59 58 58 59
33 33 33 33 34 36 38 40 41 43 44 45 46 47 48 48 48 49 49 49 50 51 53 55 56 58 59 61 61 61 60 60 59 59 59 60 61 61 60 60 60 61 61 60 60 60 61 60 60 61 61 60 60 59 58 57 56 55 56 56 57 57 58 58 57 57 57 56 54 52 51 53 55 57 59 60 60 59 59 60 60 59 58 58 59
34 33 33 34 35 36 38 40 41 43 44 46 47 48 49 49 50 50 50 50 51 51 52 53 55 57 59 60 61 61 61 61 60 60 60 60 61 61 60 60 60 60 60 60 60 60 60 60 60 60 60 59 59 58 57 56 55 56 56 57 58 58 58 58 58 57 56 54 51 49 51 54 56 58 59 60 59 59 60 60 59 58 58 59 60
34 34 34 35 36 37 38 40 41 43 44 45 47 48 49 50 51 52 52 52 52 52 52 53 54 56 58 59 60 61 61 61 61 62 61 61 61 60 59 60 60 60 60 60 60 60 59 59 59 58 58 58 58 57 56 55 56 56 57 58 58 58 58 58 57 56 54 51 49 49 52 54 56 59 59 58 58 59 60 60 59 59 59 60 60
33 34 34 35 36 38 39 40 41 43 44 45 46 47 49 50 51 53 53 53 53 53 53 53 54 55 57 59 60 60 61 61 61 62 62 61 61 60 59 59 59 59 59 59 59 59 58 57 57 57 57 57 56 55 55 55 56 57 58 58 58 58 58 57 55 54 51 48 48 51 53 54 57 59 58 58 59 59 60 59 59 60 60 60 60
34 34 35 36 37 38 39 41 42 44 45 46 47 48 49 50 52 53 54 55 55 55 55 54 55 55 56 58 59 59 60 61 61 61 62 61 61 60 60 58 58 58 58 58 57 57 56 56 56 56 56 55 55 55 56 56 57 57 57 58 58 58 56 54 53 50 48 48 50 51 53 55 58 59 58 58 59 59 60 59 59 60 60 61 61
35 35 36 37 38 40 41 42 44 45 46 47 49 49 50 51 52 53 53 54 54 55 55 56 56 56 57 57 58 59 60 61 61 61 62 62 61 60 59 59 58 58 58 57 56 56 56 56 56 55 55 55 55 56 56 56 57 57 58 58 57 55 53 52 49 46 46 49 50 52 54 56 58 58 58 59 59 59 59 59 60 61 61 61 62
35 36 37 38 39 40 42 43 44 46 47 48 48 49 49 49 50 50 51 51 51 52 53 54 55 56 56 57 57 58 59 60 60 60 61 63 63 63 62 61 60 59 58 58 58 57 57 57 57 56 56 56 56 56 56 56 56 57 57 56 54 52 51 48 45 45 47 49 51 53 55 56 57 59 59 59 59 59 58 58 60 61 61 61 62
36 37 38 38 40 41 42 43 44 45 46 46 47 47 47 48 48 49 49 50 50 51 51 52 53 54 55 55 56 57 58 58 57 57 59 61 62 63 63 63 63 61 61 60 60 60 60 59 58 57 56 55 55 54 55 56 57 56 54 52 51 50 47 44 44 46 48 49 51 53 55 56 58 59 60 60 60 59 58 58 59 60 61 62 63
37 37 38 38 38 39 40 41 42 43 44 44 45 46 46 47 48 49 50 50 51 51 52 52 52 53 53 53 53 54 54 55 55 55 57 58 59 60 61 61 62 62 61 61 61 61 60 59 57 56 54 53 53 54 55 55 54 52 51 50 48 45 43 43 45 47 48 50 52 54 55 57 59 60 60 60 59 58 58 59 59 60 61 62 64
36 36 36 36 36 37 37 38 39 40 40 41 42 43 44 45 46 48 48 49 50 51 52 52 52 52 52 52 52 51 51 52 52 53 54 55 56 57 57 58 58 58 58 59 59 57 56 54 53 52 52 52 53 54 53 52 50 49 48 46 43 42 42 44 46 47 49 51 53 54 56 58 60 60 61 60 58 57 58 59 60 60 61 63 65
35 35 35 35 36 36 37 37 38 38 39 40 41 42 43 44 45 46 47 47 48 49 50 51 52 52 51 51 51 51 51 50 50 50 51 52 53 54 55 56 55 55 54 54 53 51 50 50 50 51 52 52 52 51 49 49 47 46 44 42 41 42 43 45 47 49 51 52 53 55 57 59 60 60 61 60 58 57 58 59 60 61 62 64 66
33 34 34 36 37 37 38 38 38 39 40 41 42 43 45 46 46 47 47 48 48 49 50 51 51 51 50 50 50 50 49 49 48 48 48 49 49 50 51 52 51 50 49 48 48 48 49 50 51 51 51 50 49 48 47 45 44 41 40 40 41 43 44 46 48 50 52 53 54 56 58 59 60 61 61 59 57 58 59 60 60 61 63 65 67
33 34 34 36 36 37 38 39 40 41 42 43 45 46 47 48 48 49 49 49 50 51 51 51 50 50 50 49 49 47 47 47 46 46 46 45 45 45 46 48 49 49 48 48 49 50 50 50 50 49 48 47 46 45 43 41 40 39 40 41 42 44 46 48 50 52 53 54 55 57 58 60 61 61 60 58 57 59 60 60 61 62 64 67 69
33 34 34 35 36 37 38 39 41 42 43 44 46 46 47 47 48 48 48 49 50 51 52 52 51 50 49 49 48 46 45 45 45 44 44 43 43 43 43 46 48 49 49 50 50 50 48 48 47 45 44 43 42 40 39 38 39 40 41 42 44 46 48 50 51 53 54 55 56 57 59 60 61 61 59 58 58 60 61 61 62 63 66 68 70
34 34 35 36 37 38 39 40 42 43 44 45 46 47 48 48 48 48 48 49 50 51 52 52 51 50 49 49 48 47 45 44 44 43 43 43 44 44 44 46 47 47 47 47 46 46 45 43 42 41 40 39 38 37 37 38 40 41 42 44 46 48 49 51 52 53 54 55 56 58 59 61 61 60 59 59 60 61 62 62 63 65 67 69 70
34 35 36 37 38 39 41 43 44 45 46 46 47 47 48 49 49 49 49 50 51 51 52 51 50 50 49 49 49 48 46 44 43 42 42 42 43 43 44 44 44 44 43 43 42 41 40 39 38 37 37 36 36 37 39 40 41 43 44 46 47 49 51 52 53 54 55 56 57 59 60 61 61 61 60 61 61 62 63 64 65 67 68 69 70
35 36 37 38 40 42 43 44 45 45 46 46 46 46 46 47 48 48 49 49 49 49 48 47 47 47 46 46 45 45 44 43 41 39 38 38 38 39 39 40 40 40 39 39 38 38 37 37 37 36 36 37 38 40 41 42 43 44 46 47 49 50 52 52 53 54 56 57 58 60 60 60 61 62 62 62 63 64 64 65 67 68 69 69 70
36 38 39 41 42 43 44 44 44 44 45 44 44 44 43 43 44 45 46 45 45 44 43 43 42 41 40 40 39 39 40 39 39 38 36 35 35 35 35 36 36 37 37 37 37 37 37 37 37 37 38 40 41 42 43 44 45 46 47 48 50 51 52 53 54 56 57 58 60 60 60 61 63 63 63 64 64 64 65 67 68 68 69 70 71
39 40 41 42 43 44 45 44 43 43 43 43 42 41 41 41 42 42 42 41 40 40 39 38 38 37 36 36 36 36 36 37 37 36 35 35 34 34 34 34 35 36 36 37 37 37 38 38 39 40 41 42 43 44 44 45 46 47 48 49 51 53 53 54 56 57 58 60 60 59 61 63 64 64 65 65 65 66 67 68 68 68 69 71 72
40 41 42 43 45 46 46 44 41 41 41 41 41 40 40 40 40 40 40 39 38 37 36 36 35 35 34 34 34 35 35 35 35 35 35 34 34 34 35 35 35 36 37 37 38 39 39 40 41 42 43 44 45 45 46 47 47 48 49 51 53 54 55 56 57 59 61 62 60 60 63 65 65 65 66 66 66 67 67 67 67 68 70 71 73
40 41 42 44 45 46 45 42 40 40 40 40 39 39 39 39 39 39 38 37 36 35 35 35 34 34 34 34 34 34 34 34 34 34 34 35 35 35 35 36 36 37 38 38 39 40 41 42 43 44 45 46 47 47 48 48 49 50 52 53 55 56 56 58 60 61 62 62 60 61 65 67 67 67 68 68 68 68 67 67 68 69 71 72 73
41 42 44 45 46 46 43 41 40 40 39 38 38 38 38 38 38 38 38 37 36 36 35 34 34 34 34 34 35 35 36 36 36 36 36 36 36 37 37 37 38 39 39 40 41 42 43 44 45 47 48 49 49 49 50 50 51 53 54 56 57 57 58 60 62 64 63 61 60 62 66 68 68 69 69 69 68 68 68 68 69 70 72 73 75
42 43 45 46 46 44 41 40 40 39 39 38 37 37 38 38 39 38 38 37 37 36 36 35 35 35 36 36 36 36 37 37 37 38 38 38 39 39 40 40 41 42 42 43 44 45 46 47 48 50 50 51 51 51 51 52 53 54 56 57 58 59 60 62 64 65 64 62 62 65 68 68 69 69 69 69 69 69 70 70 71 72 73 74 76
43 44 46 47 46 43 40 40 40 39 39 39 38 38 38 38 38 39 38 38 38 37 37 37 37 37 37 37 37 38 38 38 38 39 39 40 41 42 43 43 44 45 45 46 47 48 49 50 51 52 52 53 53 53 52 53 54 56 57 58 59 60 62 64 64 64 63 64 66 68 68 68 68 68 68 69 69 70 71 72 73 74 74 75 76
44 45 46 46 44 42 40 39 39 40 40 40 39 39 38 38 38 39 39 39 39 39 39 39 39 39 39 39 39 39 40 40 41 41 42 43 43 44 45 46 46 47 48 49 50 50 51 52 53 53 54 54 54 54 53 54 55 57 58 60 61 62 64 65 64 64 65 66 68 69 68 68 67 67 68 69 70 71 73 74 76 76 76 76 76
44 45 46 45 43 41 40 39 39 40 40 41 40 40 39 39 39 39 39 40 40 40 40 41 41 41 40 41 41 41 42 43 43 44 45 45 46 47 47 48 49 50 51 51 52 53 53 54 54 55 55 55 55 55 55 56 57 58 59 62 63 64 64 65 66 66 67 68 69 69 68 67 67 67 69 70 71 73 74 75 76 77 76 76 76
45 46 46 45 44 42 40 40 40 40 40 40 41 40 40 40 40 40 40 40 41 41 41 41 41 42 42 42 43 43 44 45 45 46 47 48 48 49 49 50 51 52 53 53 54 55 55 56 56 56 56 56 56 56 56 57 58 60 62 63 64 65 65 66 67 67 67 68 69 68 67 67 67 68 69 70 72 73 74 75 76 76 75 76 77
46 46 46 46 45 43 41 41 40 40 41 41 41 41 41 41 41 41 41 41 41 41 42 42 42 43 43 44 44 45 45 46 47 48 48 49 50 50 51 52 52 53 54 54 55 56 57 57 58 58 58 59 59 59 59 60 61 62 64 65 66 66 67 67 67 67 68 69 69 68 68 68 68 69 70 71 73 74 74 75 75 75 76 77 77
47 47 47 47 46 44 43 43 42 42 42 42 42 42 42 42 42 42 42 42 42 42 43 43 44 44 45 45 46 46 46 47 48 48 49 50 51 52 52 53 54 54 55 56 58 59 59 60 61 61 62 62 63 63 63 64 64 65 66 67 68 68 68 68 68 69 69 70 69 69 69 69 69 69 70 72 73 74 74 75 75 75 76 77 78
48 48 48 49 48 46 45 44 43 43 43 43 43 43 43 43 44 43 43 43 43 43 44 44 45 46 46 47 47 47 48 49 49 50 50 51 52 53 53 54 55 56 57 58 59 61 62 63 64 65 66 66 67 67 67 68 68 68 69 70 70 70 69 69 70 71 70 70 70 70 69 69 70 70 71 72 73 74 75 75 76 76 77 78 78
50 49 49 50 50 48 47 46 45 45 45 44 45 45 44 45 45 45 45 45 44 44 45 45 46 47 47 48 48 49 49 49 50 50 51 52 52 53 53 54 55 56 57 58 59 60 62 63 64 65 67 68 68 69 70 70 70 71 71 72 72 72 71 71 71 71 71 70 70 70 70 70 70 70 71 72 73 74 75 76 77 78 78 79 79
52 51 50 50 50 49 49 48 48 47 47 47 47 47 47 47 47 46 46 46 46 46 47 47 48 49 49 50 50 50 50 50 51 52 52 53 53 54 54 55 55 57 57 58 59 60 61 62 64 65 66 67 68 69 70 70 71 71 72 72 72 72 72 72 71 71 71 71 71 70 70 70 70 71 71 72 73 74 75 77 78 79 79 80 81
54 53 51 50 50 51 51 51 51 50 49 49 49 49 49 49 48 48 48 48 48 48 49 49 50 51 51 52 53 53 53 54 55 56 56 56 57 57 58 58 58 59 60 60 61 61 62 63 64 65 65 66 67 68 69 70 70 71 71 71 71 71 71 70 70 70 70 70 71 71 71 71 71 72 72 73 74 75 76 78 79 80 81 82 82
55 55 53 51 51 52 52 52 52 52 51 51 51 51 51 51 50 50 50 50 50 50 50 51 52 52 53 54 55 55 56 57 58 58 59 60 60 61 61 61 62 62 63 63 63 64 64 65 65 65 66 67 67 68 68 69 69 69 70 70 70 70 69 69 69 70 70 71 71 71 72 72 72 73 73 74 76 77 78 80 81 82 82 83 83
56 56 55 53 53 53 53 53 53 53 53 53 53 53 53 52 52 52 52 52 52 52 52 53 53 54 55 56 57 58 59 59 60 60 61 62 63 63 63 63 64 64 64 64 65 66 66 66 67 67 67 67 67 67 68 68 68 68 69 69 69 69 69 69 69 70 71 72 72 72 73 73 74 75 76 77 78 79 80 82 83 83 84 84 84
56 57 56 56 55 54 54 53 53 54 54 54 54 54 55 55 55 55 55 54 54 55 55 56 56 57 58 59 60 61 61 62 62 62 63 63 64 64 64 64 65 65 66 66 67 67 68 68 68 68 68 68 67 67 68 68 68 68 69 69 69 69 69 70 70 72 72 73 73 74 74 75 76 77 78 79 80 81 82 83 84 85 85 84 84
57 57 58 58 57 56 56 55 55 55 55 56 56 56 56 57 57 57 57 57 57 58 58 59 59 60 61 61 62 63 63 64 64 64 64 64 64 65 65 65 66 66 67 68 69 69 69 69 69 68 68 67 67 67 68 68 68 68 68 69 69 70 71 72 73 74 74 74 75 75 76 77 78 79 80 82 83 84 84 85 85 85 85 84 84
57 57 58 59 59 59 58 57 56 56 56 56 57 57 57 58 59 59 59 60 60 60 60 60 61 62 63 63 64 64 64 65 65 65 65 65 65 65 66 67 67 68 69 70 71 71 70 70 70 69 68 67 67 67 67 67 68 68 69 70 71 72 73 74 75 75 76 76 76 77 78 79 81 82 83 84 84 85 86 86 86 85 85 85 85
57 57 58 59 59 59 59 59 59 58 58 57 58 58 59 59 60 61 61 62 62 62 61 61 62 63 64 65 65 65 65 65 65 66 66 66 67 68 69 69 70 71 72 72 72 72 71 71 70 69 68 67 66 67 67 68 69 70 71 72 73 74 75 75 76 76 77 78 79 80 81 82 83 84 85 85 86 86 86 86 86 85 85 85 85
58 58 58 58 59 59 60 60 60 60 59 59 60 60 61 61 62 62 63 63 63 63 63 63 64 65 66 66 67 67 67 67 67 67 68 68 69 70 71 72 73 73 74 73 73 73 72 71 69 68 67 67 67 68 69 70 71 72 73 74 74 75 76 76 77 78 79 80 81 82 83 84 85 85 86 86 87 87 87 86 86 86 85 85 85
58 58 59 59 60 60 61 62 62 61 61 61 61 62 62 63 63 63 64 64 65 65 65 65 66 67 68 69 69 69 69 69 69 70 70 71 72 73 74 74 75 75 75 75 74 74 72 71 69 68 67 67 68 69 71 72 73 74 75 76 76 77 77 78 79 81 82 83 84 85 85 86 87 87 87 88 87 87 87 87 86 86 85 85 84
59 59 60 60 61 61 62 63 63 63 63 63 63 63 63 63 64 64 65 65 66 66 67 68 68 69 70 71 71 72 72 71 71 72 73 74 75 75 76 76 76 76 76 76 76 75 73 71 69 68 68 69 70 72 73 75 76 77 78 78 79 80 81 82 83 84 85 86 87 87 87 88 88 88 88 88 88 87 87 87 86 86 85 84 83
60 60 61 61 62 62 63 63 64 64 64 64 64 64 64 65 65 66 66 67 68 68 69 69 70 71 72 73 73 73 73 73 73 74 75 76 77 77 77 78 78 78 78 77 76 74 72 70 69 70 71 72 74 75 77 78 79 80 81 82 83 84 84 85 87 88 88 89 89 89 89 89 89 89 89 88 88 87 87 86 85 85 84 83 82
60 61 61 62 62 63 63 64 64 64 64 65 65 66 66 67 67 67 68 69 69 70 70 71 72 73 74 74 74 74 74 75 75 76 77 78 78 78 78 78 78 78 77 75 74 73 72 72 72 74 75 77 79 80 81 82 83 84 85 86 86 87 88 89 90 90 91 91 91 90 90 90 90 89 88 88 87 86 85 84 84 83 82 81 79
61 62 62 63 63 64 64 64 65 65 65 66 67 67 68 68 69 69 70 70 71 72 72 73 74 74 75 75 75 76 76 77 78 79 79 79 79 79 79 78 78 77 76 75 75 75 75 77 78 80 81 83 84 85 86 87 87 88 89 89 90 91 91 92 93 93 93 92 92 92 91 90 89 88 87 86 85 84 83 83 82 80 79 77 75
63 64 64 65 65 65 66 66 66 66 67 68 68 68 69 69 70 70 71 71 72 73 74 75 75 76 76 76 77 78 79 80 80 81 81 82 81 80 79 78 78 77 77 78 79 80 81 82 84 85 87 88 89 89 90 91 92 92 93 93 94 94 95 95 95 95 94 94 93 92 91 90 88 87 86 84 83 82 80 79 78 76 74 73 71
65 65 66 66 66 67 67 67 68 68 68 69 69 69 70 70 70 71 72 73 74 75 76 77 77 78 78 79 79 80 81 82 83 83 84 83 82 81 81 80 80 81 82 83 84 85 86 88 89 90 91 91 92 93 94 95 96 96 97 97 98 98 98 98 97 96 96 94 93 91 89 87 86 84 83 81 79 78 76 74 73 71 70 68 67
67 67 67 68 68 68 69 69 69 69 70 70 70 70 70 71 71 72 74 75 76 77 78 79 79 80 81 81 82 83 84 84 84 84 84 83 83 83 83 84 85 86 87 88 89 90 91 91 92 93 94 95 96 97 98 99 99 100 100 100 101 100 100 99 97 96 94 92 89 87 86 84 82 80 78 76 74 73 71 69 68 67 66 65 63
68 69 69 70 70 70 70 70 70 70 70 70 71 71 71 72 73 74 76 77 79 80 80 81 81 82 83 84 85 85 86 85 85 84 84 84 84 85 86 88 89 90 91 92 93 94 94 95 95 96 97 98 99 100 101 102 102 103 103 103 102 101 100 98 95 92 90 87 85 83 81 79 77 75 73 71 69 67 65 64 63 62 61 60 58
70 71 71 71 71 71 71 71 71 71 71 71 71 72 72 73 75 77 79 80 81 82 82 83 83 84 85 86 86 86 86 85 85 85 86 86 87 89 90 91 92 94 94 95 96 97 97 98 99 99 100 101 102 103 104 105 105 105 105 104 103 100 97 94 91 88 85 83 80 78 76 74 72 69 67 64 62 60 59 58 57 56 55 54 52
Wind_Direction
290 287 283 281 280 279 279 279 279 278 278 278 277 277 276 275 275 276 276 278 279 280 281 281 280 280 280 281 281 281 281 281 281 282 282 283 283 284 284 285 285 285 286 286 287 288 289 290 291 291 292 293 294 294 294 295 296 297 298 298 298 297 297 297 297 298 300 302 304 306 306 306 306 307 309 311 312 313 314 315 317 317 318 319 319
290 287 284 281 279 277 277 278 279 279 279 279 279 278 277 276 276 276 276 277 278 280 281 282 282 282 282 282 283 283 283 283 282 282 282 283 284 284 285 285 285 285 286 286 287 288 288 289 290 291 292 292 292 293 293 294 295 296 297 296 296 296 296 296 297 299 300 303 305 306 306 306 307 308 310 311 312 313 315 316 317 317 318 319 318
291 288 285 282 279 277 276 276 276 277 278 279 280 280 280 279 279 278 277 276 277 278 279 281 281 282 282 282 283 283 283 283 283 283 283 283 284 285 286 286 286 286 287 287 287 287 288 289 289 290 291 291 291 292 293 293 294 295 295 295 295 295 295 296 297 299 301 303 305 305 305 306 308 308 310 311 313 314 316 316 317 317 318 318 318
288 286 283 280 278 277 275 275 274 275 276 277 278 279 280 281 281 281 280 279 277 277 278 279 281 282 283 283 284 284 284 283 283 284 284 284 284 285 286 286 287 287 287 287 287 287 287 288 289 289 290 290 291 291 291 292 293 294 294 294 294 294 295 296 298 300 302 303 304 305 306 307 308 308 310 312 313 315 316 316 317 317 318 318 319
282 281 279 277 277 276 276 276 276 276 276 276 277 278 278 279 280 281 281 281 280 279 279 279 280 282 283 284 285 285 285 285 284 284 285 285 285 285 286 286 286 287 286 286 286 286 287 287 288 288 289 290 290 290 291 292 292 292 292 293 294 294 295 297 298 300 302 303 304 305 307 308 308 308 311 313 314 315 315 316 316 317 318 318 320
279 278 277 276 276 277 277 277 278 278 279 279 279 279 279 279 279 280 281 281 282 282 282 281 281 282 283 284 286 287 287 287 286 286 286 286 286 286 286 286 286 285 285 286 286 286 286 287 287 288 288 288 289 289 290 291 291 291 292 293 293 294 295 297 299 301 302 303 305 306 307 308 308 309 311 313 314 315 316 316 316 316 317 319 320
277 277 276 276 277 277 278 278 279 280 281 281 281 282 282 282 283 284 284 285 285 285 285 284 283 283 284 285 286 287 288 288 288 287 287 287 287 286 286 285 284 284 284 285 285 285 285 285 286 287 287 287 288 289 290 290 290 291 292 292 293 294 296 297 299 301 302 304 306 306 307 308 308 309 311 312 313 315 316 315 315 317 318 320 321
274 274 274 275 276 277 278 279 280 281 282 283 284 285 286 286 287 288 289 289 289 288 287 286 286 285 285 285 286 287 288 289 289 288 287 287 286 286 285 284 284 283 282 282 282 283 284 284 285 286 287 288 288 288 289 290 291 291 291 292 294 295 296 298 300 302 303 305 305 306 307 308 308 309 310 312 313 315 315 314 315 317 319 320 322
272 273 274 275 276 278 279 281 282 284 285 287 288 289 289 290 291 291 291 291 290 290 289 288 287 286 286 286 286 287 287 288 288 287 287 286 286 286 285 285 284 283 282 282 282 283 284 284 285 286 287 287 288 288 289 290 290 291 292 293 294 295 296 299 301 303 303 304 305 307 308 307 307 308 310 311 313 314 314 314 316 317 318 320 322
272 274 276 278 280 282 283 285 286 287 288 288 289 290 291 291 292 292 292 291 291 290 289 288 287 286 286 286 286 286 287 287 287 286 286 286 286 286 286 286 285 284 284 284 284 285 286 286 287 287 287 287 287 288 289 289 290 291 292 293 294 295 298 300 302 302 303 305 306 306 306 306 307 308 309 311 313 313 314 315 316 317 318 319 321
274 277 280 283 285 287 288 289 290 290 290 290 290 291 291 292 292 292 292 292 292 291 290 289 288 286 285 285 284 285 286 287 288 288 287 287 287 287 287 286 286 286 286 286 287 288 288 288 288 288 287 287 287 288 289 289 291 292 292 293 294 297 300 301 302 303 304 305 305 305 305 305 306 307 309 311 312 313 314 316 316 317 318 319 320
278 281 284 287 289 290 291 292 292 293 293 293 292 292 292 292 292 292 292 291 291 291 290 289 288 286 285 284 284 284 285 288 290 291 291 290 288 287 287 287 287 287 288 288 288 289 289 288 287 287 286 287 287 288 289 290 291 291 292 293 296 299 301 302 303 304 304 304 304 304 304 304 305 307 309 311 312 314 315 316 316 317 317 318 319
280 283 286 288 289 290 292 292 292 293 292 292 292 292 291 291 290 290 290 289 289 289 289 288 288 287 286 286 286 287 288 290 291 293 293 293 292 290 289 288 289 289 289 288 288 288 287 286 285 285 286 287 288 289 289 289 290 291 293 296 298 300 302 303 303 303 302 303 303 303 303 304 306 308 309 311 313 314 315 315 316 317 317 317 318
282 285 287 289 290 290 291 291 291 291 290 290 290 289 289 289 289 289 288 288 288 288 288 287 287 287 287 287 288 290 291 292 293 294 296 296 296 294 290 288 288 288 287 286 285 285 285 285 286 287 288 289 288 288 288 289 290 293 296 298 299 301 302 302 301 301 301 302 303 303 303 305 307 308 310 312 313 313 314 315 316 316 317 317 317
284 287 289 290 291 291 291 291 291 291 290 290 290 290 289 289 289 289 288 287 287 287 287 286 287 287 288 289 290 292 293 295 295 296 296 296 295 294 291 289 289 288 286 286 286 286 287 288 288 288 288 287 286 287 289 291 294 296 297 299 300 301 301 300 300 301 302 302 302 303 304 306 307 309 310 311 312 312 313 314 315 316 316 316 316
286 288 290 291 292 292 292 292 293 293 292 292 291 291 291 290 289 289 288 287 286 285 286 287 288 290 290 291 292 294 296 298 299 298 296 294 292 291 290 289 288 288 288 288 288 288 288 288 287 286 285 286 287 290 292 294 295 297 299 300 301 301 300 299 300 301 301 302 303 304 305 307 308 309 310 311 311 312 312 314 315 315 315 315 315
286 288 290 291 292 292 293 293 293 293 294 293 292 292 292 292 291 290 289 288 288 288 290 291 292 293 293 294 296 298 300 301 301 299 297 295 293 291 290 290 290 290 290 289 288 287 286 285 285 285 286 289 291 292 293 295 297 299 300 300 299 299 298 299 300 301 302 304 305 305 306 307 307 308 309 310 310 311 312 313 314 314 314 314 314
286 288 289 290 290 291 291 292 292 293 293 293 293 293 293 292 292 291 291 292 292 293 293 294 294 295 296 298 300 302 304 304 303 301 298 296 294 293 291 291 290 289 288 287 287 287 287 288 289 290 292 293 293 294 295 297 298 298 298 298 298 298 298 300 302 303 304 304 304 305 306 306 306 307 308 309 310 310 312 312 313 313 313 312 313
285 285 287 288 290 290 290 291 292 293 293 294 295 294 293 293 292 292 293 294 295 296 295 295 296 297 299 301 302 303 305 305 305 304 302 300 297 295 293 291 290 289 289 289 290 291 293 294 295 296 295 295 294 295 296 296 296 297 298 298 298 299 300 302 303 304 304 303 304 305 305 304 305 306 307 308 309 310 311 311 312 312 311 311 311
282 284 286 288 289 289 290 291 292 293 294 295 295 294 293 292 292 292 293 294 295 296 296 297 298 299 300 301 301 302 303 304 304 304 304 302 300 298 296 295 294 294 294 294 295 296 296 296 296 295 294 294 294 295 295 296 297 298 299 299 300 301 302 303 303 303 303 303 304 304 303 303 305 306 306 307 308 309 310 310 310 310 310 310 310
281 284 286 288 288 289 291 291 292 293 294 295 294 293 292 291 291 291 292 293 294 294 295 296 296 296 297 297 298 299 300 301 301 301 301 300 299 299 298 297 297 296 296 296 296 296 295 294 294 294 294 294 294 295 296 298 299 300 301 301 301 302 302 302 302 302 302 302 303 302 301 303 304 305 306 308 308 309 309 309 309 309 309 309 310
280 283 285 286 288 289 290 291 292 293 294 294 293 292 291 290 290 291 291 292 292 292 293 293 293 294 294 295 296 297 297 297 297 298 298 297 297 297 296 296 295 295 295 294 294 293 293 293 294 295 295 295 296 298 299 301 302 302 302 301 301 301 302 302 301 301 301 302 302 301 301 303 304 305 307 308 308 308 308 308 308 308 308 309 310
280 281 283 285 287 288 289 290 291 292 293 293 292 291 290 289 289 289 290 290 290 290 291 291 292 293 294 295 295 296 296 296 296 297 297 296 296 295 294 294 293 293 293 293 293 293 294 295 296 296 296 297 299 300 302 303 303 302 301 301 301 301 301 301 300 300 301 301 300 299 300 303 304 305 306 307 307 307 307 307 307 308 308 309 309
278 279 282 284 286 287 287 288 289 291 293 293 292 290 289 288 288 288 289 289 289 290 291 291 292 292 293 293 293 294 294 295 296 297 297 297 297 296 296 296 295 295 295 295 295 296 296 296 296 296 297 299 300 301 302 303 302 301 300 300 300 300 299 299 299 300 301 301 299 299 301 302 303 304 305 305 306 306 306 306 307 307 308 309 309
276 279 282 284 285 286 285 286 289 291 293 293 292 290 288 288 288 288 288 289 289 290 291 291 291 291 291 291 292 292 293 294 294 295 295 295 295 295 295 296 296 296 295 295 295 294 294 294 295 296 297 298 299 300 301 301 299 298 298 298 298 298 298 298 299 299 299 299 299 299 300 302 303 304 304 304 304 305 305 306 307 307 308 309 310
275 279 282 284 284 283 283 285 288 290 292 292 291 290 289 289 288 289 289 289 290 290 291 291 291 291 291 291 292 292 293 293 293 293 293 294 294 294 294 294 294 294 293 293 293 293 293 293 294 295 296 296 297 298 298 298 297 297 297 296 296 296 297 297 297 297 297 298 298 299 301 302 303 303 303 303 304 304 305 306 307 308 309 310 310
275 278 280 282 282 281 281 282 284 287 289 290 291 291 291 290 290 289 289 289 290 290 290 291 291 291 292 292 292 293 293 293 294 294 294 294 294 294 294 294 293 293 293 293 292 292 292 292 292 293 294 295 295 295 295 295 295 295 294 294 294 295 296 296 296 296 297 297 298 299 301 302 302 302 302 302 303 304 305 306 306 308 309 309 308
273 276 279 279 278 277 278 279 281 283 285 287 288 289 289 289 289 288 288 288 288 288 288 288 289 289 290 291 291 292 292 293 293 293 293 293 293 293 293 293 293 293 293 293 292 292 292 292 292 293 293 293 293 293 293 293 293 293 293 293 293 294 294 295 295 296 296 297 297 299 300 301 301 301 301 302 302 303 304 305 306 307 307 307 306
271 274 276 276 275 275 276 278 279 281 282 284 285 286 286 286 286 286 286 285 285 285 285 285 286 286 287 288 289 290 290 290 290 291 291 291 291 291 292 292 292 292 292 292 292 292 292 292 293 293 293 292 292 292 292 292 292 292 292 292 293 293 294 294 295 295 295 296 298 299 300 300 300 301 301 301 302 303 304 305 305 305 305 304 305
270 272 273 273 273 274 275 276 278 279 280 282 283 284 284 285 285 285 284 284 284 283 283 284 284 285 286 287 288 289 289 289 290 290 290 291 291 291 291 291 292 292 292 292 292 292 293 293 293 293 292 292 291 291 291 291 291 291 291 292 292 293 293 294 294 295 295 297 298 298 299 300 300 301 301 301 302 303 303 303 303 303 303 303 303
268 269 271 271 271 272 273 275 277 278 280 281 282 282 283 284 284 284 284 284 284 283 282 283 283 284 285 287 288 289 289 290 291 291 291 291 290 291 291 292 292 293 293 293 293 293 293 293 293 292 292 292 291 291 291 291 291 291 291 292 292 293 293 294 294 295 296 297 298 299 299 300 301 301 302 302 302 302 302 301 301 301 301 302 302
266 267 269 269 270 272 274 275 276 278 279 280 280 281 282 282 283 284 284 284 283 282 282 282 283 283 285 286 288 289 290 291 291 291 291 291 291 292 292 293 294 294 295 295 295 294 294 294 293 293 292 292 291 291 291 290 290 291 291 292 292 293 293 294 294 295 297 298 299 300 300 301 301 301 301 301 301 300 300 300 300 300 301 301 301
266 266 267 268 271 274 276 276 276 277 278 279 280 281 281 282 283 283 284 284 284 283 283 284 284 285 287 289 290 291 292 293 293 292 292 293 294 294 295 296 296 296 296 296 296 296 295 295 295 294 293 293 292 292 292 291 291 291 292 292 293 293 294 295 296 297 298 298 299 300 300 300 300 300 300 299 299 299 299 299 299 300 300 301 301
266 267 268 269 271 274 275 277 277 278 278 279 280 281 282 282 283 283 284 284 284 284 285 285 286 288 290 291 293 294 294 294 294 293 294 295 295 296 296 297 297 297 296 296 296 296 296 297 297 296 296 295 295 294 293 293 293 293 293 293 294 294 295 296 296 297 297 298 298 299 299 299 299 298 298 298 298 299 299 299 299 300 301 301 301
266 267 268 269 270 272 273 275 276 277 278 279 280 281 282 282 283 283 284 284 284 285 285 286 287 288 290 291 292 292 293 292 292 293 294 294 295 295 296 297 297 297 297 297 297 297 297 298 298 298 298 297 296 295 295 294 294 294 294 294 294 294 295 296 296 296 297 297 298 298 298 298 298 298 298 298 299 299 300 300 300 301 301 301 301
267 268 269 269 270 271 272 274 275 277 278 279 280 281 282 283 283 284 284 284 285 285 286 286 287 288 289 290 290 291 291 291 292 293 293 294 294 294 295 296 296 297 297 298 298 298 298 298 298 298 298 297 296 296 295 294 294 294 294 294 294 294 295 295 296 296 297 297 298 298 298 298 298 298 299 299 300 300 300 300 300 300 300 300 300
268 269 270 270 270 271 272 273 275 277 278 279 281 282 283 284 284 285 285 285 286 286 286 287 287 288 289 290 290 291 291 292 293 293 293 293 294 294 295 295 296 296 297 297 298 298 299 299 299 299 298 297 296 296 295 294 294 293 293 294 294 295 295 296 297 297 298 299 299 299 299 299 299 299 299 300 300 300 300 300 300 299 300 300 299
268 269 270 270 271 272 273 274 275 276 277 279 280 281 282 283 284 285 285 286 286 286 287 288 288 289 289 290 290 291 291 292 292 293 293 294 294 295 295 295 296 296 297 297 298 299 299 300 300 300 298 297 296 295 294 294 293 293 294 295 295 296 297 298 299 299 299 299 299 299 299 299 299 299 299 300 300 300 299 299 299 299 299 299 298
267 268 269 271 272 273 274 274 275 276 276 278 279 280 281 282 283 284 285 286 286 287 288 289 289 290 290 290 290 291 292 292 293 293 294 295 295 295 296 296 297 297 298 299 299 300 301 302 301 300 299 297 295 294 294 294 294 295 296 297 298 299 299 299 299 299 299 299 299 299 300 299 299 299 300 300 299 299 298 298 298 298 298 298 298
268 269 269 270 271 273 274 274 275 276 277 278 279 280 281 282 284 285 286 287 288 289 289 290 290 290 290 291 291 292 292 293 294 294 295 296 296 296 297 297 298 298 299 300 301 301 302 302 302 300 298 297 295 295 295 295 296 297 298 299 299 300 300 299 299 299 300 300 300 300 300 300 300 300 299 299 298 298 297 297 297 297 297 297 297
268 269 270 271 272 273 274 275 276 277 278 279 280 281 282 283 284 285 286 287 288 289 290 290 290 290 291 291 292 293 293 294 295 295 296 296 297 297 298 298 299 299 300 301 302 302 303 302 301 299 297 296 296 296 296 297 298 298 299 299 299 299 300 300 300 300 300 301 301 301 300 300 300 299 299 298 297 297 297 297 297 296 296 296 296
269 270 271 272 273 273 274 276 277 278 279 280 281 282 282 284 285 286 286 287 288 289 290 290 290 290 291 292 293 293 294 295 296 296 296 297 297 298 298 299 299 300 301 301 302 302 302 301 300 298 297 296 296 297 297 298 298 299 299 300 300 300 301 301 301 301 302 302 302 301 300 300 299 299 298 297 297 297 297 296 296 296 296 295 295
269 270 270 271 272 273 274 275 277 278 279 280 281 282 283 284 285 286 286 287 288 289 289 290 290 291 291 292 293 294 295 295 296 296 297 297 298 298 298 299 300 300 301 302 302 302 301 300 299 298 297 297 297 297 298 298 299 300 300 301 302 302 303 303 303 303 302 302 302 301 300 299 299 298 298 297 297 296 296 296 295 295 295 295 295
268 269 270 271 272 273 274 275 276 277 278 280 281 282 283 284 284 285 286 287 287 288 289 290 290 291 292 293 294 294 295 295 296 296 297 297 298 298 299 299 300 301 302 302 302 301 300 299 298 297 297 297 298 299 300 300 301 302 303 303 304 304 304 304 303 303 303 302 301 300 300 299 298 298 297 297 296 296 295 295 294 294 294 294 294
268 269 270 271 272 273 274 275 276 277 278 279 280 281 282 283 284 285 285 286 287 288 289 290 291 292 293 293 294 295 295 296 296 296 297 297 298 298 299 300 300 301 301 300 299 298 297 296 296 296 297 298 299 301 302 303 304 304 304 304 305 304 304 304 303 303 302 301 301 300 299 299 298 297 297 296 295 294 294 293 293 293 293 294 294
269 270 271 272 273 273 274 275 276 277 278 279 280 281 282 283 283 284 285 287 288 289 290 291 292 292 293 294 295 295 296 296 296 296 296 297 297 298 298 299 300 300 299 298 297 296 296 296 297 298 299 300 301 302 303 304 304 305 305 305 304 304 304 303 303 302 301 301 300 300 299 298 297 296 295 294 294 293 293 293 293 293 293 293 293
269 270 271 272 273 273 274 275 276 277 278 279 279 281 282 283 284 285 287 288 289 290 291 291 292 293 294 294 295 295 295 295 295 296 296 296 297 297 298 299 298 298 297 297 297 297 297 298 299 299 300 301 302 303 303 304 305 305 305 304 304 304 303 303 302 302 301 300 300 299 298 297 296 295 294 294 293 293 293 292 293 293 293 293 292
268 269 269 271 272 273 274 275 276 276 278 279 280 281 282 284 285 287 288 289 290 291 291 292 293 294 294 294 294 295 295 295 295 295 296 296 297 298 298 298 298 298 298 298 298 299 299 300 300 300 301 301 302 303 303 304 304 304 304 304 303 303 302 302 302 301 301 300 299 298 297 296 295 294 293 293 293 292 292 293 293 293 292 291 291
267 268 269 270 271 272 273 274 275 277 278 279 281 282 283 285 286 288 289 290 291 291 292 293 293 294 294 294 294 294 294 294 295 295 296 297 298 298 298 298 298 298 299 299 299 300 300 300 300 300 301 301 302 302 303 303 303 303 303 303 302 302 302 301 301 301 300 299 298 296 295 294 293 293 292 292 292 293 293 293 293 292 291 290 290
266 267 268 269 271 272 273 274 276 277 279 280 281 283 284 286 287 289 290 291 291 292 292 292 293 293 293 293 293 294 294 295 295 296 297 297 297 297 297 298 298 298 299 299 299 300 300 300 300 300 300 301 301 301 302 302 302 302 302 302 302 302 302 301 300 300 299 297 296 295 294 293 292 292 292 292 293 293 293 293 293 292 291 289 288
266 267 268 269 271 272 274 275 277 278 279 280 282 283 285 287 289 290 291 291 292 292 291 291 292 292 292 293 294 294 295 295 296 296 296 296 296 296 297 297 297 297 298 298 298 299 299 299 299 299 300 300 300 301 301 301 301 301 302 302 302 302 301 300 299 298 297 296 294 293 292 292 291 292 292 292 293 293 294 294 294 292 290 288 287
Height
5806 5806 5806 5805 5805 5805 5804 5804 5803 5802 5801 5800 5800 5799 5798 5797 5796 5795 5795 5794 5794 5793 5792 5791 5790 5789 5787 5785 5784 5784 5783 5783 5782 5780 5778 5776 5774 5773 5771 5770 5769 5767 5765 5764 5763 5761 5759 5757 5755 5753 5751 5749 5747 5744 5742 5739 5737 5734 5731 5729 5725 5722 5719 5717 5714 5712 5709 5707 5704 5700 5697 5695 5691 5686 5682 5678 5675 5671 5668 5664 5661 5657 5652 5648 5643
5800 5800 5800 5800 5800 5799 5799 5798 5797 5797 5796 5795 5794 5793 5792 5791 5790 5789 5789 5788 5787 5787 5786 5785 5784 5782 5781 5779 5778 5777 5777 5776 5774 5773 5771 5769 5768 5766 5765 5763 5762 5760 5759 5757 5756 5754 5752 5750 5749 5747 5745 5743 5741 5738 5736 5734 5731 5729 5726 5723 5720 5716 5713 5711 5709 5706 5703 5701 5698 5695 5692 5689 5686 5682 5677 5673 5669 5665 5661 5658 5655 5651 5647 5642 5638
5795 5795 5795 5794 5794 5793 5793 5792 5791 5791 5790 5789 5788 5788 5787 5786 5785 5784 5783 5782 5781 5781 5780 5778 5777 5776 5774 5772 5771 5771 5770 5769 5767 5766 5765 5763 5761 5760 5759 5757 5755 5754 5752 5751 5749 5748 5746 5744 5742 5740 5738 5736 5734 5732 5730 5728 5725 5723 5720 5717 5714 5711 5708 5705 5703 5701 5698 5695 5693 5690 5687 5683 5680 5676 5672 5668 5664 5660 5656 5651 5648 5645 5641 5637 5632
5790 5789 5789 5788 5788 5787 5787 5786 5785 5785 5784 5783 5782 5782 5781 5780 5779 5779 5778 5776 5775 5774 5773 5772 5771 5769 5768 5766 5765 5764 5763 5762 5761 5759 5758 5757 5755 5754 5752 5751 5749 5748 5746 5744 5742 5741 5739 5737 5735 5734 5732 5730 5728 5726 5724 5721 5719 5717 5714 5711 5708 5705 5702 5699 5697 5695 5692 5690 5688 5685 5682 5678 5675 5671 5667 5664 5659 5655 5650 5646 5641 5638 5635 5632 5627
5784 5784 5783 5782 5782 5781 5781 5780 5779 5779 5778 5777 5777 5776 5775 5774 5773 5772 5771 5770 5769 5767 5766 5765 5764 5762 5761 5759 5758 5757 5756 5755 5754 5752 5751 5750 5748 5747 5746 5744 5742 5741 5739 5738 5736 5734 5733 5731 5729 5727 5725 5724 5722 5720 5717 5715 5713 5710 5707 5705 5702 5699 5697 5694 5691 5689 5687 5685 5682 5679 5676 5673 5669 5665 5662 5658 5654 5649 5645 5641 5636 5632 5629 5626 5622
5778 5777 5777 5776 5776 5775 5775 5774 5774 5773 5772 5772 5771 5770 5769 5768 5767 5766 5765 5764 5762 5761 5760 5758 5757 5755 5754 5752 5751 5750 5749 5748 5746 5745 5744 5743 5741 5740 5739 5737 5735 5734 5732 5731 5729 5728 5726 5724 5722 5721 5719 5717 5715 5713 5711 5709 5706 5704 5701 5699 5696 5694 5691 5689 5686 5684 5681 5679 5677 5674 5671 5667 5663 5660 5657 5653 5649 5643 5638 5634 5631 5628 5624 5620 5615
5772 5771 5771 5771 5770 5769 5769 5768 5768 5767 5766 5766 5765 5764 5763 5762 5761 5760 5758 5757 5756 5754 5753 5751 5750 5748 5747 5746 5744 5743 5742 5740 5739 5738 5737 5735 5734 5733 5732 5730 5728 5727 5725 5724 5723 5721 5719 5717 5716 5714 5712 5710 5709 5707 5704 5702 5700 5698 5695 5693 5690 5688 5686 5683 5681 5679 5677 5674 5671 5668 5665 5662 5658 5654 5651 5648 5644 5640 5634 5629 5625 5621 5618 5614 5609
5766 5766 5765 5765 5764 5764 5763 5763 5762 5761 5760 5759 5758 5757 5757 5755 5754 5753 5752 5751 5749 5748 5746 5744 5743 5741 5740 5739 5737 5736 5735 5734 5732 5731 5729 5728 5727 5725 5724 5722 5721 5720 5718 5717 5716 5714 5712 5710 5709 5707 5705 5703 5702 5700 5698 5696 5694 5691 5689 5687 5685 5683 5680 5678 5677 5674 5672 5669 5666 5663 5660 5656 5652 5649 5645 5642 5638 5635 5631 5626 5621 5615 5611 5608 5604
5760 5760 5760 5759 5759 5758 5758 5757 5756 5756 5754 5754 5752 5751 5750 5749 5748 5747 5745 5744 5743 5741 5739 5738 5736 5734 5733 5732 5730 5729 5728 5727 5725 5724 5722 5721 5719 5718 5717 5715 5714 5712 5710 5709 5708 5706 5705 5703 5701 5700 5698 5696 5695 5693 5692 5689 5687 5685 5683 5681 5679 5677 5675 5673 5672 5670 5667 5664 5661 5658 5654 5651 5647 5643 5639 5636 5633 5629 5626 5621 5617 5612 5607 5603 5600
5755 5754 5754 5754 5754 5753 5753 5752 5751 5750 5749 5748 5747 5745 5744 5743 5742 5740 5739 5737 5736 5734 5733 5731 5729 5728 5726 5725 5723 5722 5721 5720 5718 5717 5715 5714 5712 5710 5709 5708 5707 5705 5703 5702 5700 5699 5697 5696 5694 5692 5691 5690 5689 5687 5685 5683 5681 5679 5677 5676 5674 5672 5670 5668 5667 5664 5661 5659 5655 5652 5649 5645 5641 5637 5634 5631 5628 5624 5620 5616 5611 5607 5602 5597 5594
5750 5749 5749 5749 5748 5748 5747 5747 5746 5745 5744 5743 5741 5740 5739 5738 5736 5735 5733 5732 5730 5728 5727 5725 5723 5721 5719 5718 5716 5715 5714 5713 5711 5710 5709 5707 5705 5703 5702 5701 5699 5698 5697 5695 5693 5692 5690 5689 5687 5686 5685 5684 5682 5680 5679 5677 5675 5673 5671 5670 5668 5667 5665 5663 5661 5659 5656 5653 5650 5646 5643 5639 5635 5632 5628 5625 5622 5618 5614 5610 5605 5601 5597 5593 5589
5745 5744 5744 5743 5743 5742 5741 5741 5740 5739 5738 5737 5736 5735 5733 5732 5730 5729 5727 5725 5723 5722 5720 5718 5716 5714 5713 5711 5710 5709 5707 5706 5705 5703 5702 5700 5699 5697 5695 5693 5692 5691 5689 5688 5686 5685 5684 5682 5681 5680 5679 5677 5676 5674 5672 5670 5669 5667 5666 5664 5663 5662 5660 5658 5655 5653 5650 5647 5644 5641 5637 5633 5630 5626 5623 5619 5616 5612 5608 5604 5600 5596 5591 5588 5584
5739 5738 5738 5738 5737 5736 5735 5735 5734 5733 5733 5731 5730 5729 5728 5726 5724 5722 5721 5719 5717 5715 5713 5711 5709 5707 5706 5704 5703 5702 5700 5699 5698 5696 5695 5694 5692 5691 5689 5686 5685 5684 5683 5682 5680 5679 5678 5677 5675 5674 5672 5671 5669 5668 5666 5664 5663 5662 5660 5659 5658 5656 5654 5652 5649 5647 5644 5641 5638 5635 5631 5627 5624 5620 5617 5613 5610 5606 5602 5598 5594 5590 5585 5582 5579
5733 5733 5733 5732 5731 5731 5730 5729 5729 5728 5727 5726 5724 5723 5721 5720 5718 5716 5714 5712 5710 5708 5706 5704 5702 5700 5699 5697 5696 5695 5693 5692 5691 5689 5688 5687 5685 5685 5684 5682 5680 5679 5677 5676 5675 5673 5672 5671 5670 5668 5666 5665 5663 5662 5660 5659 5657 5657 5655 5654 5653 5651 5648 5646 5643 5641 5638 5635 5632 5629 5625 5621 5618 5614 5610 5607 5603 5600 5596 5592 5588 5584 5579 5575 5572
5727 5727 5727 5726 5726 5725 5725 5724 5723 5722 5721 5720 5718 5716 5715 5713 5711 5710 5708 5706 5704 5702 5699 5697 5696 5694 5692 5691 5689 5688 5687 5685 5685 5683 5682 5681 5679 5679 5679 5677 5675 5673 5672 5670 5669 5667 5666 5665 5663 5662 5660 5659 5657 5656 5655 5654 5653 5652 5650 5649 5647 5645 5642 5640 5637 5634 5632 5629 5625 5622 5619 5615 5611 5607 5604 5600 5597 5594 5590 5587 5582 5578 5573 5568 5565
5722 5721 5721 5721 5720 5720 5719 5718 5717 5716 5714 5713 5711 5709 5708 5706 5704 5703 5701 5699 5697 5695 5693 5691 5690 5688 5686 5685 5683 5682 5680 5679 5679 5677 5676 5675 5674 5673 5672 5671 5669 5668 5666 5665 5663 5662 5660 5659 5657 5656 5655 5653 5652 5651 5650 5649 5648 5646 5645 5643 5641 5639 5636 5634 5631 5628 5625 5622 5618 5615 5612 5608 5604 5601 5597 5594 5591 5587 5584 5581 5577 5573 5568 5564 5559
5716 5715 5715 5715 5714 5714 5713 5712 5710 5709 5708 5706 5704 5703 5701 5699 5697 5696 5694 5692 5691 5689 5687 5685 5684 5682 5680 5679 5677 5676 5674 5673 5673 5671 5670 5669 5668 5667 5666 5665 5664 5662 5660 5659 5657 5656 5654 5653 5652 5650 5649 5648 5647 5646 5645 5643 5642 5641 5639 5637 5635 5633 5630 5627 5625 5622 5618 5615 5611 5608 5604 5600 5597 5594 5591 5588 5584 5580 5577 5574 5570 5566 5563 5558 5554
5709 5709 5709 5709 5709 5708 5707 5705 5704 5702 5701 5699 5698 5696 5694 5693 5691 5690 5688 5686 5685 5683 5682 5680 5678 5677 5675 5674 5672 5670 5669 5667 5666 5665 5664 5663 5662 5661 5660 5659 5658 5656 5655 5653 5651 5650 5649 5648 5647 5645 5644 5643 5642 5640 5639 5638 5637 5636 5634 5632 5630 5627 5624 5621 5618 5615 5611 5608 5604 5601 5597 5593 5590 5587 5584 5581 5578 5574 5570 5567 5563 5560 5556 5552 5548
5703 5703 5703 5703 5703 5701 5700 5698 5697 5695 5694 5692 5691 5690 5688 5686 5685 5684 5682 5681 5679 5677 5676 5675 5673 5672 5670 5669 5667 5665 5664 5662 5661 5660 5659 5657 5656 5655 5654 5653 5652 5650 5649 5648 5646 5645 5644 5643 5642 5640 5639 5638 5636 5635 5634 5633 5632 5630 5628 5626 5623 5619 5617 5614 5611 5607 5604 5601 5597 5593 5590 5586 5583 5580 5577 5574 5571 5567 5564 5561 5557 5553 5549 5545 5541
5697 5697 5697 5697 5696 5695 5693 5691 5690 5689 5687 5686 5684 5683 5682 5680 5679 5678 5676 5675 5674 5672 5671 5669 5668 5667 5665 5664 5662 5661 5659 5658 5657 5655 5654 5653 5652 5651 5649 5648 5647 5646 5644 5643 5642 5641 5639 5638 5637 5635 5634 5632 5631 5630 5629 5627 5626 5624 5622 5619 5615 5612 5609 5607 5603 5600 5597 5594 5590 5587 5583 5579 5576 5572 5569 5566 5563 5560 5557 5554 5550 5546 5542 5538 5534
5691 5691 5690 5690 5689 5688 5686 5685 5684 5683 5681 5680 5678 5677 5676 5675 5673 5672 5670 5669 5668 5667 5666 5664 5663 5662 5660 5659 5657 5656 5655 5653 5652 5651 5650 5648 5647 5646 5645 5644 5643 5641 5640 5639 5637 5636 5634 5633 5631 5630 5628 5627 5625 5624 5622 5621 5619 5617 5614 5611 5608 5605 5602 5599 5596 5593 5590 5587 5583 5580 5576 5572 5568 5565 5562 5559 5556 5553 5550 5546 5543 5539 5535 5531 5527
5686 5685 5684 5683 5682 5681 5680 5679 5678 5676 5675 5674 5673 5671 5670 5669 5668 5667 5665 5664 5663 5662 5660 5659 5658 5656 5655 5653 5652 5651 5650 5649 5647 5646 5645 5644 5643 5641 5640 5639 5638 5636 5635 5633 5632 5631 5629 5627 5626 5624 5622 5620 5618 5617 5615 5613 5611 5609 5606 5603 5600 5598 5595 5592 5588 5585 5583 5580 5577 5573 5568 5565 5561 5558 5554 5552 5549 5546 5542 5539 5535 5532 5528 5523 5519
5680 5679 5678 5677 5676 5675 5674 5673 5672 5671 5670 5669 5667 5666 5665 5664 5663 5661 5660 5658 5657 5656 5655 5654 5653 5651 5650 5648 5647 5646 5644 5643 5642 5641 5640 5639 5637 5636 5635 5634 5632 5631 5629 5628 5626 5625 5623 5621 5619 5617 5615 5613 5611 5610 5608 5606 5604 5602 5599 5596 5593 5591 5588 5584 5581 5578 5575 5573 5569 5566 5562 5558 5554 5551 5548 5545 5542 5538 5535 5531 5528 5524 5520 5515 5511
5673 5673 5672 5671 5670 5669 5668 5667 5666 5665 5664 5663 5662 5661 5660 5659 5657 5656 5655 5653 5652 5651 5650 5649 5648 5646 5645 5643 5642 5640 5639 5637 5636 5635 5634 5632 5631 5629 5628 5627 5625 5624 5623 5621 5619 5618 5616 5614 5612 5609 5608 5606 5605 5603 5602 5600 5597 5594 5591 5588 5586 5583 5580 5577 5574 5570 5568 5565 5562 5558 5554 5551 5548 5544 5541 5538 5534 5531 5527 5523 5520 5516 5511 5507 5503
5667 5667 5666 5665 5664 5663 5663 5662 5661 5660 5659 5658 5657 5656 5655 5654 5652 5651 5650 5649 5647 5646 5645 5643 5642 5641 5639 5638 5636 5635 5633 5632 5631 5629 5628 5626 5625 5623 5622 5621 5619 5618 5616 5614 5613 5611 5609 5607 5605 5603 5601 5600 5598 5597 5596 5593 5590 5587 5583 5581 5579 5576 5572 5569 5566 5563 5560 5557 5553 5550 5547 5544 5541 5538 5534 5530 5527 5523 5519 5515 5511 5508 5503 5498 5493
5661 5660 5660 5659 5658 5657 5657 5656 5655 5654 5653 5652 5651 5650 5649 5648 5647 5646 5645 5644 5642 5641 5640 5639 5637 5636 5634 5633 5632 5630 5629 5627 5626 5624 5623 5621 5620 5618 5617 5615 5614 5612 5610 5608 5606 5604 5602 5600 5598 5597 5595 5594 5592 5590 5588 5586 5583 5580 5576 5573 5570 5568 5564 5561 5558 5555 5552 5549 5545 5542 5539 5536 5533 5530 5527 5523 5519 5515 5511 5507 5502 5499 5495 5490 5484
5654 5654 5653 5652 5652 5651 5650 5649 5648 5648 5647 5646 5645 5645 5644 5643 5642 5641 5640 5639 5637 5636 5635 5634 5633 5631 5630 5628 5627 5625 5624 5622 5621 5619 5618 5616 5615 5613 5612 5610 5608 5606 5604 5603 5600 5598 5596 5594 5592 5591 5589 5588 5586 5583 5581 5578 5576 5573 5569 5565 5562 5559 5556 5553 5550 5547 5544 5541 5537 5534 5531 5529 5526 5523 5519 5516 5511 5507 5504 5499 5494 5490 5487 5482 5477
5648 5647 5647 5646 5645 5644 5643 5642 5642 5641 5640 5640 5639 5639 5638 5637 5636 5635 5634 5632 5631 5630 5629 5628 5626 5625 5624 5622 5621 5619 5618 5616 5615 5613 5612 5610 5609 5607 5606 5604 5602 5601 5598 5597 5595 5593 5591 5589 5587 5585 5583 5581 5579 5576 5574 5571 5568 5565 5561 5557 5554 5551 5548 5545 5542 5539 5536 5532 5529 5526 5524 5521 5518 5515 5511 5508 5504 5500 5496 5492 5487 5483 5480 5476 5471
5641 5640 5640 5640 5639 5638 5637 5636 5635 5634 5634 5633 5633 5632 5631 5630 5629 5628 5627 5626 5625 5624 5622 5621 5620 5619 5618 5616 5615 5613 5612 5610 5609 5607 5605 5604 5603 5601 5600 5598 5596 5594 5592 5590 5588 5586 5585 5583 5581 5579 5576 5574 5572 5569 5566 5563 5560 5557 5553 5550 5547 5543 5540 5537 5534 5531 5527 5524 5521 5519 5516 5513 5510 5507 5504 5501 5496 5492 5489 5485 5481 5477 5473 5468 5464
5634 5634 5634 5633 5632 5632 5631 5629 5628 5628 5627 5626 5626 5625 5624 5624 5623 5622 5621 5620 5619 5618 5617 5616 5615 5614 5612 5611 5609 5608 5606 5604 5603 5601 5600 5599 5597 5595 5593 5591 5590 5588 5586 5584 5582 5580 5578 5576 5574 5571 5569 5566 5564 5562 5558 5555 5552 5549 5545 5542 5539 5536 5533 5529 5526 5522 5519 5516 5513 5511 5508 5505 5502 5499 5496 5492 5489 5485 5481 5477 5473 5470 5466 5461 5457
5627 5627 5627 5626 5626 5625 5624 5622 5622 5621 5620 5620 5619 5618 5618 5617 5617 5616 5615 5614 5613 5612 5611 5610 5609 5608 5606 5605 5604 5602 5600 5599 5598 5596 5594 5593 5591 5589 5587 5585 5583 5582 5580 5577 5575 5573 5571 5569 5566 5564 5561 5558 5556 5553 5550 5547 5544 5540 5537 5535 5532 5528 5525 5521 5518 5514 5512 5509 5506 5503 5500 5497 5494 5491 5488 5484 5480 5477 5473 5469 5465 5462 5457 5453 5449
5620 5620 5620 5619 5619 5619 5618 5617 5615 5614 5613 5613 5612 5612 5611 5610 5610 5609 5609 5607 5607 5605 5604 5603 5602 5601 5600 5599 5598 5596 5595 5593 5592 5590 5588 5586 5584 5582 5581 5579 5577 5575 5573 5571 5569 5566 5563 5561 5558 5556 5553 5550 5548 5545 5541 5538 5535 5532 5529 5527 5524 5521 5517 5514 5510 5507 5504 5501 5498 5495 5492 5489 5485 5482 5479 5476 5472 5468 5464 5460 5456 5452 5448 5444 5440
5613 5612 5612 5612 5612 5612 5612 5611 5609 5608 5607 5606 5606 5605 5604 5603 5603 5602 5601 5600 5600 5599 5598 5597 5596 5595 5594 5593 5591 5590 5588 5587 5585 5582 5580 5579 5577 5575 5574 5572 5570 5568 5566 5564 5561 5558 5555 5553 5550 5547 5544 5542 5539 5536 5533 5530 5527 5524 5521 5519 5516 5513 5509 5506 5502 5499 5496 5493 5490 5487 5483 5480 5477 5474 5470 5467 5463 5458 5454 5450 5446 5443 5439 5434 5430
5606 5605 5605 5605 5605 5605 5604 5604 5602 5601 5600 5599 5599 5598 5598 5597 5596 5595 5594 5593 5593 5592 5591 5590 5589 5588 5587 5585 5584 5582 5581 5579 5577 5575 5573 5571 5570 5568 5566 5564 5562 5559 5557 5555 5552 5549 5546 5544 5541 5538 5535 5533 5529 5526 5523 5521 5518 5515 5513 5510 5507 5504 5501 5497 5494 5491 5487 5484 5481 5478 5475 5471 5468 5465 5461 5457 5453 5449 5444 5440 5436 5432 5429 5424 5420
5598 5598 5598 5598 5597 5597 5596 5596 5595 5594 5593 5592 5592 5591 5590 5590 5589 5588 5587 5587 5586 5585 5584 5583 5582 5581 5580 5578 5577 5575 5573 5571 5569 5567 5565 5564 5562 5560 5558 5556 5553 5551 5548 5546 5543 5540 5537 5534 5531 5528 5526 5523 5520 5517 5514 5512 5509 5506 5504 5501 5498 5495 5492 5489 5486 5482 5479 5476 5473 5470 5466 5462 5459 5455 5451 5447 5443 5438 5434 5429 5425 5421 5417 5413 5409
5591 5591 5590 5590 5590 5589 5589 5588 5588 5587 5586 5585 5585 5584 5583 5582 5581 5581 5580 5579 5579 5578 5577 5576 5575 5574 5573 5571 5569 5567 5565 5563 5561 5559 5557 5555 5554 5552 5550 5547 5544 5542 5540 5537 5534 5531 5528 5525 5522 5519 5517 5514 5511 5508 5505 5502 5500 5497 5494 5492 5489 5486 5483 5480 5477 5474 5470 5467 5464 5460 5457 5452 5448 5444 5440 5436 5432 5428 5423 5419 5415 5410 5407 5403 5399
5583 5583 5583 5583 5582 5582 5581 5581 5580 5580 5579 5578 5577 5576 5575 5575 5573 5573 5572 5571 5571 5570 5569 5568 5567 5566 5565 5563 5561 5559 5557 5555 5553 5551 5549 5547 5545 5543 5541 5539 5536 5533 5531 5528 5526 5523 5520 5516 5513 5510 5507 5504 5501 5498 5496 5493 5490 5487 5485 5482 5480 5477 5475 5472 5468 5465 5461 5458 5454 5450 5446 5442 5438 5433 5429 5426 5422 5417 5413 5408 5404 5400 5396 5392 5388
5575 5575 5575 5575 5575 5575 5574 5573 5573 5572 5571 5570 5570 5569 5568 5567 5565 5564 5563 5562 5562 5561 5560 5559 5559 5557 5556 5554 5552 5550 5548 5546 5544 5542 5540 5538 5536 5534 5532 5530 5528 5525 5522 5519 5516 5514 5511 5507 5503 5500 5497 5494 5491 5489 5486 5483 5480 5478 5475 5473 5470 5468 5465 5462 5458 5455 5451 5448 5444 5440 5436 5431 5427 5423 5419 5415 5411 5406 5402 5397 5393 5389 5385 5381 5377
5567 5567 5567 5567 5567 5567 5566 5565 5565 5564 5563 5562 5561 5560 5559 5558 5557 5556 5555 5554 5553 5552 5551 5550 5549 5547 5546 5545 5543 5541 5539 5536 5534 5533 5530 5528 5527 5524 5522 5520 5518 5515 5512 5509 5506 5504 5502 5498 5495 5491 5487 5484 5482 5479 5476 5473 5471 5468 5466 5463 5460 5457 5454 5451 5448 5444 5441 5437 5434 5429 5425 5421 5416 5412 5408 5404 5400 5395 5390 5386 5382 5378 5374 5370 5366
5558 5558 5558 5558 5558 5558 5557 5557 5556 5555 5554 5553 5552 5552 5551 5549 5548 5548 5546 5545 5545 5544 5543 5541 5539 5538 5536 5534 5533 5531 5529 5527 5525 5523 5521 5518 5516 5514 5511 5509 5507 5504 5502 5499 5496 5493 5491 5488 5485 5482 5478 5475 5472 5469 5466 5464 5461 5458 5456 5453 5450 5447 5443 5440 5437 5433 5430 5426 5423 5419 5415 5410 5406 5401 5397 5393 5388 5383 5379 5375 5371 5367 5363 5359 5355
5549 5549 5549 5549 5549 5549 5548 5547 5547 5546 5546 5545 5544 5543 5542 5541 5540 5539 5537 5536 5535 5534 5533 5532 5530 5528 5526 5524 5523 5521 5519 5517 5515 5513 5511 5508 5506 5503 5501 5499 5496 5493 5491 5488 5485 5483 5480 5477 5475 5472 5469 5466 5463 5460 5457 5454 5451 5448 5445 5442 5439 5436 5433 5429 5426 5422 5419 5415 5411 5407 5403 5398 5394 5390 5385 5381 5376 5372 5368 5364 5359 5355 5351 5348 5343
5540 5540 5540 5540 5540 5540 5539 5538 5538 5537 5536 5535 5535 5534 5532 5532 5530 5529 5528 5526 5525 5524 5523 5522 5520 5518 5516 5514 5513 5511 5509 5507 5505 5502 5500 5498 5495 5493 5491 5488 5486 5483 5480 5477 5475 5472 5470 5467 5464 5461 5459 5456 5453 5450 5447 5444 5441 5438 5435 5432 5429 5426 5422 5418 5414 5410 5407 5403 5399 5395 5391 5386 5382 5378 5373 5369 5364 5360 5355 5351 5347 5343 5339 5336 5332
5531 5531 5531 5531 5530 5530 5529 5529 5528 5527 5526 5526 5525 5524 5523 5522 5520 5519 5518 5516 5515 5514 5513 5511 5510 5508 5506 5505 5503 5501 5499 5497 5495 5492 5490 5488 5485 5483 5480 5478 5475 5473 5470 5467 5464 5462 5459 5456 5453 5451 5448 5446 5443 5440 5437 5434 5431 5428 5424 5421 5418 5414 5410 5406 5402 5398 5394 5390 5387 5383 5378 5374 5369 5365 5361 5356 5352 5347 5343 5339 5334 5331 5327 5323 5320
5522 5522 5522 5521 5521 5521 5520 5519 5519 5518 5517 5516 5515 5514 5513 5512 5510 5509 5507 5506 5504 5503 5502 5501 5499 5498 5496 5494 5493 5491 5489 5487 5485 5482 5480 5478 5475 5473 5470 5467 5465 5462 5459 5456 5454 5451 5449 5446 5443 5441 5438 5436 5433 5430 5427 5423 5420 5417 5413 5409 5406 5402 5398 5394 5390 5385 5381 5377 5373 5369 5365 5361 5357 5352 5348 5343 5339 5334 5330 5326 5322 5318 5315 5311 5308
5513 5513 5512 5512 5512 5511 5510 5510 5509 5508 5507 5506 5505 5504 5503 5501 5500 5499 5497 5495 5494 5493 5491 5490 5489 5487 5486 5484 5482 5480 5478 5476 5474 5472 5470 5468 5465 5463 5460 5457 5454 5452 5449 5446 5444 5441 5439 5437 5434 5431 5428 5425 5422 5419 5416 5412 5408 5405 5401 5397 5394 5390 5386 5381 5377 5372 5368 5364 5360 5356 5352 5348 5344 5339 5335 5330 5326 5322 5318 5314 5310 5306 5303 5300 5297
5504 5504 5503 5502 5502 5501 5501 5500 5499 5498 5497 5496 5495 5494 5493 5491 5490 5488 5487 5485 5484 5482 5480 5479 5478 5476 5475 5473 5471 5469 5467 5465 5463 5462 5459 5457 5455 5452 5449 5447 5444 5442 5439 5436 5434 5431 5429 5426 5424 5421 5418 5414 5410 5407 5403 5400 5396 5392 5389 5385 5381 5377 5372 5368 5363 5359 5355 5351 5347 5342 5338 5334 5330 5326 5321 5317 5313 5309 5306 5302 5298 5294 5291 5288 5285
5494 5494 5493 5493 5492 5491 5491 5490 5489 5488 5487 5486 5485 5484 5482 5481 5479 5478 5476 5475 5473 5471 5470 5468 5467 5465 5464 5462 5460 5459 5457 5454 5452 5450 5448 5446 5444 5441 5439 5436 5434 5431 5429 5426 5423 5420 5418 5415 5412 5409 5405 5402 5398 5394 5391 5387 5383 5379 5376 5372 5367 5363 5359 5354 5350 5346 5342 5337 5333 5329 5324 5320 5316 5312 5308 5304 5300 5297 5293 5289 5286 5283 5280 5277 5275
5485 5484 5483 5483 5482 5481 5480 5480 5479 5478 5477 5476 5474 5473 5472 5470 5469 5467 5465 5464 5462 5461 5459 5457 5456 5454 5452 5451 5449 5447 5445 5443 5441 5439 5436 5434 5432 5429 5427 5425 5422 5419 5417 5414 5411 5408 5405 5402 5398 5395 5392 5388 5385 5381 5377 5374 5370 5366 5362 5358 5354 5349 5345 5341 5337 5333 5328 5323 5319 5315 5310 5306 5303 5299 5295 5292 5288 5285 5281 5278 5275 5272 5269 5266 5264
5474 5474 5473 5473 5472 5471 5470 5470 5468 5467 5467 5465 5464 5463 5461 5460 5458 5457 5455 5453 5452 5450 5448 5446 5444 5442 5441 5439 5437 5435 5433 5431 5429 5427 5424 5422 5420 5417 5415 5413 5410 5407 5404 5401 5398 5395 5391 5388 5385 5382 5378 5375 5371 5367 5364 5360 5356 5353 5349 5344 5340 5335 5331 5326 5322 5318 5314 5309 5305 5301 5297 5293 5290 5286 5283 5279 5276 5273 5270 5267 5264 5261 5259 5256 5254
5464 5463 5463 5462 5462 5461 5460 5459 5458 5457 5456 5455 5454 5452 5451 5449 5448 5446 5444 5442 5441 5439 5437 5435 5433 5431 5429 5427 5425 5423 5421 5419 5417 5414 5412 5410 5408 5405 5403 5400 5397 5395 5392 5389 5385 5382 5379 5375 5372 5369 5365 5362 5358 5354 5350 5346 5342 5338 5335 5330 5326 5321 5317 5312 5308 5304 5300 5296 5292 5288 5284 5281 5277 5274 5271 5268 5265 5262 5259 5256 5254 5251 5249 5246 5245
5453 5453 5452 5452 5451 5450 5450 5449 5448 5447 5446 5444 5443 5442 5440 5438 5437 5435 5433 5431 5430 5428 5426 5424 5422 5420 5418 5416 5413 5411 5409 5407 5404 5402 5400 5398 5396 5393 5391 5388 5385 5382 5379 5376 5373 5369 5366 5362 5359 5355 5352 5348 5344 5340 5336 5332 5328 5324 5320 5316 5311 5307 5302 5298 5294 5290 5286 5282 5279 5275 5272 5269 5266 5263 5260 5257 5255 5252 5250 5247 5244 5242 5240 5238 5236